Location: A�t Bou Chrif
(32.7193°N, 5.2385°W)
Time: 00:26:03
(UTC+00:00)

Cosmos 2123 Rocket - Pass Details

Date: 08 August 2020
Orbit: 962 x 991 km, 82.9° (Epoch: 18 September)

Event Time Altitude Azimuth Distance (km) Brightness Sun altitude
Rises 21:53:38 0° 349° (N) 3,662 7.8 -29.3°
Reaches altitude 10° 21:56:09 10° 347° (NNW) 2,716 7.0 -29.6°
Maximum altitude 22:02:17 63° 268° (W) 1,082 4.2 -30.5°
Enters shadow 22:02:53 59° 239° (WSW) 1,111 4.2 -30.6°
